Dauntless Aviation
Airports Asia Taiwan
RCGM

Taoyuan Air Base (Closed)

Taoyuan City, TAIWAN

Airport Info
Suggest Updated Information for this Airport

Location

Latitude / Longitude: 25°3'23"N / 121°14'39"E
  25°3.396'N / 121°14.658'E
  25.0566 / 121.2443
Satellite photo at:
Airport distance calculator
From:
Weather Reports

METAR

RCTP
1.6nm W
RCTP 220300Z 01003KT 320V060 9999 FEW015 BKN050 28/19 Q1011 NOSIG RMK A2986
RCSS
15.7nm NE
RCSS 220300Z 08009KT 9999 FEW030 BKN060 BKN090 26/17 Q1010 NOSIG RMK A2985

TAF

RCTP
1.6nm W
TAF RCTP 212300Z 2200/2306 09005KT 9999 FEW015 BKN032 TEMPO 2202/2210 06012KT TEMPO 2216/2222 16005KT BECMG 2222/2224 06010KT
RCSS
15.7nm NE
TAF RCSS 212300Z 2200/2224 09008KT 9999 FEW020 BKN032
Safelog

 

Dauntless Aviation

© 2007-2019 Dauntless Aviation, all rights reserved
Information provided via PilotNav comes from a variety of official and unofficial data sources. As errors are possible, do not use PilotNav for primary flight planning purposes. Verify any information that you receive via PilotNav with current and canonical charts and other official documents. The material in this database is subject to database copyrights held by Dauntless Aviation and may not be copied without the express permission of Dauntless Aviation - licenses for use of part of all of this data are available for purchase; enquire via the Dauntless Aviation helpdesk. A number of mechanisms and markers exist in the database to protect against and identify infringement / copyright. Automated queries against this website are stictly prohibited, and all activity is logged and analyzed.